Weather Roundup
Issued by NWS

Home | Current Version | Previous Version | Text Only | Print | Product List | Glossary On
Versions: 1 2 3 4 5 6 7 8 9 10 11 12 13 14 15 16 17 18 19 20 21 22 23 24 25 26 27 28 29 30 31 32 33 34 35 36 37 38 39 40 41 42 43 44 45 46 47 48 49 50
000
NZUS93 KARX 031810
HRRWXR

CURRENT HOURLY OBSERVATIONS ACROSS
MUCH OF THE UPPER MISSISSIPPI VALLEY
NATIONAL WEATHER SERVICE LA CROSSE WI
100 PM CDT FRI JUL 03 2015


...SOUTHEAST MINNESOTA...


CITY           SKY/WX    TMP DP  RH WIND       PRES   REMARKS
ROCHESTER      MOSUNNY   74  57  55 VRB5      30.00S
ROCHESTER/MAYO FAIR      73  55  51 W6        29.99S
WINONA         MOSUNNY   73  59  60 CALM      29.97F
AUSTIN         MOSUNNY   75  54  46 CALM      30.00S
ALBERT LEA     SUNNY     73  55  53 W6        30.00S
DODGE CENTER   SUNNY     73  57  56 W6        30.00S
PRESTON        SUNNY     71  56  57 W3        30.01S
OWATONNA       SUNNY     75  54  46 W8        29.99F
FARIBAULT      SUNNY     75  57  53 W5        29.99S
$$

...ELSEWHERE IN MINNESOTA...


CITY           SKY/WX    TMP DP  RH WIND       PRES   REMARKS
MINNEAPOLIS    CLOUDY    76  56  49 W12       29.96S
INTNL FALLS    MOSUNNY   77  56  48 N12       29.88S
DULUTH         MOSUNNY   77  63  61 VRB6      29.89S HAZE
RED WING       MOSUNNY   79  55  44 W8        29.95F
REDWOOD FALLS  SUNNY     77  56  48 W6        29.97S
MANKATO        SUNNY     73  48  40 W6        29.99S
WORTHINGTON    SUNNY     72  57  60 SW6       30.01S
FAIRMONT       SUNNY     73  45  35 CALM      30.00S
$$

...SOUTHWEST WISCONSIN...


CITY           SKY/WX    TMP DP  RH WIND       PRES   REMARKS
LA CROSSE      MOSUNNY   76  58  53 VRB5      29.96F
PRAIRIE DU CHI SUNNY     72  52  49 SW3       29.98F
BOSCOBEL       SUNNY     75  54  47 VRB3      29.98F
LONE ROCK      SUNNY     73  51  46 VRB3      29.98F
PLATTEVILLE    SUNNY     72  47  41 CALM      29.99F
FORT MC COY    MOSUNNY   75  53  45 SW3       29.98S
CAMP DOUGLAS   MOSUNNY   74  58  55 VRB2      29.97S
VIROQUA        FAIR      72  53  49 W3        30.00S
WIS DELLS      SUNNY     73  51  46 CALM      29.97F
$$

...ELSEWHERE IN WISCONSIN...


CITY           SKY/WX    TMP DP  RH WIND       PRES   REMARKS
MILWAUKEE      PTSUNNY   73  52  47 SE8       29.98F
MADISON        MOSUNNY   72  49  44 VRB7      29.97F
GREEN BAY      SUNNY     74  56  53 SW10      29.96F
EAU CLAIRE     MOSUNNY   75  56  51 SW12      29.95F
BLACK RVR FLS  MOCLDY    75  54  47 CALM      29.97S
MEDFORD        PTSUNNY   72  56  58 SW8       29.96S
WAUSAU         MOSUNNY   73  56  54 W7        29.95F
WIS RAPIDS     MOSUNNY   73  51  46 CALM      29.98F
MARSHFIELD     MOSUNNY   74  56  53 W8        29.97F
RICE LAKE      MOSUNNY   74  55  51 SW6       29.95F
$$

...NORTHEAST IOWA...


CITY           SKY/WX    TMP DP  RH WIND       PRES   REMARKS
DECORAH          N/A    N/A N/A N/A MISG        N/A
MASON CITY     MOSUNNY   76  58  53 VRB3      30.01F
CHARLES CITY   MOSUNNY   73  57  56 CALM      30.00F
OELWEIN        SUNNY     72  55  56 W3        30.00F
$$

...ELSEWHERE IN IOWA...


CITY           SKY/WX    TMP DP  RH WIND       PRES   REMARKS
DES MOINES     MOSUNNY   76  53  44 N9        30.00F
IOWA CITY      SUNNY     75  59  57 NE7       30.00S
FORT DODGE     SUNNY     73  52  46 S3        30.02F
$$

...NORTHERN ILLINOIS...


CITY           SKY/WX    TMP DP  RH WIND       PRES   REMARKS
CHICAGO-OHARE  CLOUDY    75  54  47 E5        29.97S
CHICAGO-MIDWAY CLOUDY    76  54  46 NE8       29.97S
MOLINE         MOSUNNY   76  58  53 NE7       29.98R
ROCKFORD       PTSUNNY   76  56  49 CALM      29.99S
PEORIA         PTSUNNY   78  62  57 E7        29.95F
$$

NOTE: "FAIR" INDICATES FEW OR NO CLOUDS BELOW 12,000 FEET WITH NO
SIGNIFICANT WEATHER AND/OR OBSTRUCTIONS TO VISIBILITY. WIND
SPEEDS ARE IN MILES-PER-HOUR.



USA.gov is the U.S. government's official web portal to all federal, state and local government web resources and services.